Location: Ferques
(50.8300°N, 1.7599°E)
Time: 20:15:15
(UTC+00:00)

CZ-4 R/B - Pass Details

Date: 19 May 2025
Orbit: 499 x 550 km, 97.6° (Epoch: 21 June)

Event Time Altitude Azimuth Distance (km) Brightness Sun altitude
Rises 20:25:33 0° 202° (SSW) 2,716 4.6 -6.3°
Reaches altitude 10° 20:28:07 10° 219° (SW) 1,826 3.9 -6.6°
Maximum altitude 20:31:05 20° 268° (W) 1,299 3.8 -6.9°
Drops below altitude 10° 20:34:04 10° 317° (NW) 1,827 5.8 -7.2°
Sets 20:36:39 0° 334° (NNW) 2,719 6.5 -7.5°
